Location: USNO
(38.9242°N, 77.0663°W)
Time: 10:25:08
(UTC-04:00)

Vanguard 1 - Visible Passes

Search period start: 22 July 2018 00:00
Search period end: 01 August 2018 00:00
Orbit: 650 x 3833 km, 34.2° (Epoch: 21 July)

Date Brightness Start Highest point End Pass type
(mag) Time Alt. Az. Time Alt. Az. Time Alt. Az.
22 Jul 12.2 00:07:35 10° WSW 00:07:46 11° WSW 00:07:46 11° WSW visible
22 Jul 11.0 04:51:22 16° SW 04:52:33 17° SSW 04:56:26 10° SSE visible
22 Jul 10.7 22:06:51 10° SW 22:14:02 31° SSE 22:15:26 28° SE visible
23 Jul 11.4 05:12:01 10° SW 05:13:28 11° SSW 05:15:16 10° S visible
23 Jul 10.3 22:27:29 10° SW 22:34:59 39° SSE 22:35:46 37° SSE visible
24 Jul 10.1 22:48:22 10° WSW 22:55:54 46° S 22:55:59 46° SSE visible
25 Jul 11.5 20:46:38 10° SW 20:56:11 32° SSE 21:02:04 10° E visible
25 Jul 10.1 23:09:24 10° WSW 23:16:07 49° SSW 23:16:07 49° SSW visible
26 Jul 11.1 21:07:11 10° SW 21:17:13 39° SSE 21:23:09 10° E visible
26 Jul 10.5 23:30:32 10° WSW 23:36:09 43° SW 23:36:09 43° SW visible
27 Jul 10.8 21:28:02 10° WSW 21:38:13 47° SSE 21:43:24 14° E visible
27 Jul 10.9 23:51:43 10° W 23:56:07 33° WSW 23:56:07 33° WSW visible
28 Jul 10.6 21:49:05 10° WSW 21:59:12 54° S 22:03:18 21° ESE visible
29 Jul 11.4 00:12:56 10° W 00:16:01 24° WSW 00:16:01 24° WSW visible
29 Jul 10.4 22:10:19 10° WSW 22:20:10 59° S 22:23:10 31° ESE visible
30 Jul 11.9 00:34:10 10° W 00:35:53 17° W 00:35:53 17° W visible
30 Jul 10.3 22:31:38 10° WSW 22:41:06 61° S 22:42:59 44° SE visible
31 Jul 12.3 00:55:26 10° W 00:55:42 11° W 00:55:42 11° W visible
31 Jul 10.0 22:52:58 10° W 23:02:01 60° S 23:02:45 56° SSE visible
